TimeCST,TemperatureF,Dew PointF,Humidity,Sea Level PressureIn,VisibilityMPH,Wind Direction,Wind SpeedMPH,Gust SpeedMPH,PrecipitationIn,Events,Conditions,WindDirDegrees,DateUTC
12:53 AM,60.1,57.0,90,29.99,10.0,SSW,4.6,-,N/A,,Mostly Cloudy,200,2013-01-12 06:53:00
1:53 AM,63.0,60.1,90,29.99,10.0,South,6.9,-,N/A,,Mostly Cloudy,190,2013-01-12 07:53:00
2:53 AM,63.0,60.1,90,29.99,10.0,South,8.1,-,N/A,,Mostly Cloudy,180,2013-01-12 08:53:00
3:05 AM,62.6,60.8,94,29.99,10.0,South,9.2,-,N/A,,Scattered Clouds,180,2013-01-12 09:05:00
3:15 AM,64.4,60.8,88,29.99,10.0,South,8.1,-,N/A,,Mostly Cloudy,180,2013-01-12 09:15:00
3:53 AM,64.0,61.0,90,29.97,10.0,South,6.9,-,N/A,,Overcast,180,2013-01-12 09:53:00
4:40 AM,62.6,60.8,94,29.98,10.0,South,5.8,-,N/A,,Mostly Cloudy,190,2013-01-12 10:40:00
4:53 AM,64.0,60.1,87,29.98,10.0,SSW,4.6,-,N/A,,Mostly Cloudy,200,2013-01-12 10:53:00
5:00 AM,62.6,60.8,94,29.99,10.0,South,6.9,-,N/A,,Mostly Cloudy,190,2013-01-12 11:00:00
5:53 AM,63.0,60.1,90,30.00,10.0,South,4.6,-,N/A,,Overcast,170,2013-01-12 11:53:00
6:53 AM,63.0,61.0,93,30.01,10.0,Calm,Calm,-,N/A,,Overcast,0,2013-01-12 12:53:00
7:48 AM,62.6,60.8,94,30.02,5.0,Calm,Calm,-,0.00,Rain,Light Rain,0,2013-01-12 13:48:00
7:53 AM,64.0,61.0,90,30.01,5.0,Calm,Calm,-,0.00,Rain,Light Rain,0,2013-01-12 13:53:00
8:05 AM,64.4,62.6,94,30.02,6.0,Calm,Calm,-,0.01,,Overcast,0,2013-01-12 14:05:00
8:09 AM,62.6,60.8,94,30.03,5.0,Calm,Calm,-,0.01,,Overcast,0,2013-01-12 14:09:00
8:21 AM,62.6,60.8,94,30.03,4.0,Calm,Calm,-,0.01,,Overcast,0,2013-01-12 14:21:00
8:53 AM,64.9,63.0,93,30.02,10.0,South,4.6,-,0.01,,Overcast,170,2013-01-12 14:53:00
9:31 AM,66.2,62.6,88,30.03,10.0,South,5.8,-,N/A,,Overcast,180,2013-01-12 15:31:00
9:53 AM,66.9,64.0,90,30.02,10.0,South,4.6,-,N/A,,Overcast,170,2013-01-12 15:53:00
10:09 AM,66.2,64.4,94,30.01,6.0,SSE,4.6,-,0.00,Rain,Light Rain,150,2013-01-12 16:09:00
10:35 AM,66.2,64.4,94,30.01,10.0,SSE,6.9,-,0.02,,Overcast,160,2013-01-12 16:35:00
10:53 AM,68.0,64.9,90,29.99,10.0,South,4.6,-,0.02,,Mostly Cloudy,180,2013-01-12 16:53:00
11:05 AM,68.0,64.4,88,30.00,10.0,South,5.8,-,N/A,,Overcast,180,2013-01-12 17:05:00
11:53 AM,69.1,64.9,87,29.98,10.0,South,11.5,-,N/A,,Overcast,190,2013-01-12 17:53:00
12:15 PM,68.0,64.4,88,29.98,10.0,South,10.4,-,N/A,,Overcast,190,2013-01-12 18:15:00
12:26 PM,68.0,64.4,88,29.97,10.0,South,9.2,-,N/A,,Mostly Cloudy,180,2013-01-12 18:26:00
12:53 PM,68.0,63.0,84,29.95,10.0,South,9.2,-,0.00,Rain,Light Rain,180,2013-01-12 18:53:00
1:53 PM,66.9,63.0,87,29.93,10.0,SSE,8.1,-,0.00,Rain,Light Rain,160,2013-01-12 19:53:00
2:23 PM,66.2,64.4,94,29.93,10.0,SSE,9.2,-,0.01,,Overcast,160,2013-01-12 20:23:00
2:53 PM,68.0,64.0,87,29.92,10.0,South,8.1,-,0.01,,Overcast,190,2013-01-12 20:53:00
3:14 PM,68.0,62.6,83,29.92,10.0,SSE,11.5,-,0.00,Rain,Light Rain,150,2013-01-12 21:14:00
3:53 PM,68.0,63.0,84,29.92,10.0,South,12.7,-,0.00,,Overcast,180,2013-01-12 21:53:00
4:53 PM,68.0,62.1,81,29.91,10.0,South,10.4,-,N/A,,Overcast,180,2013-01-12 22:53:00
5:53 PM,68.0,63.0,84,29.89,10.0,South,11.5,-,N/A,,Scattered Clouds,170,2013-01-12 23:53:00
7:53 PM,69.1,62.1,78,29.88,10.0,South,12.7,-,N/A,,Overcast,180,2013-01-13 01:53:00
8:53 PM,70.0,61.0,73,29.86,10.0,South,13.8,21.9,N/A,,Overcast,170,2013-01-13 02:53:00
9:53 PM,70.0,60.1,71,29.83,10.0,South,16.1,-,N/A,,Overcast,170,2013-01-13 03:53:00
10:53 PM,70.0,59.0,68,29.83,10.0,South,23.0,28.8,N/A,,Partly Cloudy,180,2013-01-13 04:53:00